Simultaneous Nadir Overpasses (SNOs) Predictions

Prediction of SNOs between TERRA and METOP-C Satellite Orbit:

Table of predicted SNOs for the next 14.0 days since TLE Epoch: 10/28/2022
Index Date (TERRA) Time (TERRA) Lat,Lon (TERRA) SZA (TERRA ) Date (METOP-C) Time (METOP-C) Lat,Lon (METOP-C) SZA (METOP-C ) Distance(km) Time Diff (sec)
1 10/30/2022 12:48:02 81.03, 25.60 97.08 10/30/2022 12:47:57 81.03, 25.59 97.07 0.62 5
2 10/30/2022 13:37:25 -81.04,-166.58 82.89 10/30/2022 13:38:38 -81.04,-166.64 82.86 1.10 73
3 11/02/2022 04:59:49 81.02, 142.50 97.91 11/02/2022 04:59:38 81.03, 142.63 97.93 2.23 11
4 11/02/2022 05:49:12 -81.04, -49.62 82.05 11/02/2022 05:50:19 -81.04, -49.58 82.01 1.00 67
5 11/04/2022 21:11:36 81.00,-100.72 98.70 11/04/2022 21:11:20 81.01,-100.74 98.69 0.48 16
6 11/04/2022 22:00:58 -81.05, 67.55 81.20 11/04/2022 22:02:00 -81.04, 67.44 81.19 2.12 62
7 11/07/2022 13:23:22 81.00, 16.27 99.48 11/07/2022 13:23:01 81.00, 16.22 99.47 0.88 21
8 11/07/2022 14:12:44 -81.05,-175.41 80.41 11/07/2022 14:13:40 -81.05,-175.23 80.36 3.16 56
9 11/10/2022 05:35:06 81.01, 133.49 100.27 11/10/2022 05:34:40 81.01, 133.51 100.26 0.47 26



Historial Predications of SNOs between TERRA and METOP-C
